EUTE 16C (SESAT 1)

导读 | 豆包AI

EUTE 16C(又名SESAT 1)是由欧洲通信卫星组织(EUTE)主导的通信卫星,于2000年4月17日8时成功发射。该卫星属于欧洲早期商用通信卫星项目,主要承担欧亚地区的电视广播、语音数据传输等通信服务,定点地球同步轨道为区域及跨洲际通信提供支持,是SES卫星网络布局中重要的早期节点,助力欧洲通信卫星系统的全球化服务拓展。

Basic Information
目录编号:
26243
目录名称:
EUTE 16C (SESAT 1)
国际标识:
2000-019A
轨道中心:
EARTH
卫星名称:
EUTE 16C (SESAT 1)
卫星全名:
--
卫星状态:
在轨 (已飞行9452 天)
发射日期:
2000-04-17 UTC
国别 :
(EUTE)
星等 :
--
Orbit Information
数据来源 国际轨道数据 AOE轨道数据
星历时间 2026-03-04T08:36:42+0800
9小时前
查看轨道信息
2026-03-04T07:00:00+0800
10小时前
查看轨道信息
半长轴 42538.679km 42538.564km
偏心率 0.0003649 0.0003578
轨道倾角 10.665° 10.665°
近地点辐角 174.063° 173.708°
升交点赤经 46.977° 46.979°
平近点角 6.327° 342.759°
近地点 36145.019km 36145.206km
远地点 36176.065km 36175.648km
周期 1455.244分钟 1455.238分钟
每日圈数 0.989525 0.989529
Detailed Information
使用方式:
暂无
2D Orbit Map
3D Orbit Map
Orbit Altitude Analysis Chart
Orbit Inclination Analysis Chart
Orbit Comprehensive Analysis Chart
View Comprehensive Chart